Location: Unspecified
(36.1222°N, 0.0000°E)
Time: 22:17:40
(UTC+00:00)

Envisat - Visible Passes

Search period start: 22 October 2019 00:00
Search period end: 01 November 2019 00:00
Orbit: 764 x 766 km, 98.1° (Epoch: 22 October)

Date Brightness Start Highest point End Pass type
(mag) Time Alt. Az. Time Alt. Az. Time Alt. Az.
22 Oct 3.0 17:54:39 10° SSE 17:59:40 65° ENE 18:04:42 10° N visible
22 Oct 6.2 19:37:09 10° WSW 19:39:05 12° W 19:41:01 10° WNW visible
23 Oct 5.0 18:57:38 10° SSW 19:02:01 29° W 19:06:24 10° NW visible
24 Oct 6.6 05:32:25 10° ENE 05:34:03 11° E 05:35:40 10° ESE visible
24 Oct 3.3 18:20:05 10° S 18:25:08 69° WSW 18:30:13 10° NNW visible
25 Oct 3.2 17:43:33 10° SSE 17:48:27 50° ENE 17:53:21 10° N visible
25 Oct 5.9 19:24:39 10° SW 19:27:42 16° W 19:30:46 10° NW visible
26 Oct 4.5 18:46:01 10° SSW 18:50:41 37° W 18:55:24 10° NNW visible
27 Oct 3.0 18:08:48 10° SSE 18:13:52 88° WSW 18:18:58 10° NNW visible
28 Oct 3.4 17:32:33 10° SE 17:37:14 39° ENE 17:41:57 10° N visible
28 Oct 5.5 19:12:37 10° SW 19:16:21 21° W 19:20:06 10° NW visible
29 Oct 6.1 05:45:12 10° NE 05:48:26 17° E 05:51:39 10° SE visible
29 Oct 4.0 18:34:30 10° S 18:39:23 48° W 18:44:18 10° NNW visible
30 Oct 2.9 17:57:35 10° SSE 18:02:37 72° ENE 18:07:41 10° N visible
30 Oct 6.2 19:40:56 10° WSW 19:42:06 11° W 19:43:15 10° WNW visible
31 Oct 5.1 19:00:47 10° SSW 19:05:00 26° W 19:09:15 10° NW visible
